Location: *
(46.1833°N, 22.7667°E)
Time: 02:06:40
(UTC+00:00)

COSMOS 2455 - Pass Details

Date: 17 September 2019
Orbit: 900 x 909 km, 67.1° (Epoch: 20 October)

Event Time Altitude Azimuth Distance (km) Brightness Sun altitude
Rises 18:11:19 0° 320° (NW) 3,547 7.0 -16.7°
Reaches altitude 10° 18:14:02 10° 312° (NW) 2,601 6.3 -17.1°
Maximum altitude 18:19:23 34° 250° (WSW) 1,449 4.3 -17.9°
Drops below altitude 10° 18:24:42 10° 187° (S) 2,581 5.0 -18.8°
Enters shadow 18:27:04 - 179° (S) 3,402 5.6 -19.2°
